Location: Civís
(42.4648°N, 1.4232°E)
Time: 14:37:10
(UTC+00:00)

Meteor 2-20 - Pass Details

Date: 24 November 2025
Orbit: 938 x 958 km, 82.5° (Epoch: 10 December)

Event Time Altitude Azimuth Distance (km) Brightness Sun altitude
Rises 05:08:47 0° 11° (N) 3,641 7.5 -19.5°
Reaches altitude 10° 05:14:23 10° 52° (NE) 2,683 7.4 -18.5°
Maximum altitude 05:15:13 10° 60° (ENE) 2,661 7.5 -18.4°
Drops below altitude 10° 05:16:03 10° 68° (ENE) 2,679 7.6 -18.2°
Sets 05:21:35 0° 109° (ESE) 3,610 9.2 -17.2°
